Location: Newark
(48.1333°N, 17.1000°E)
Time: 13:14:15
(UTC+00:00)

N. Korean satellite - Pass Details

Date: 25 January 2020
Orbit: 456 x 505 km, 97.2° (Epoch: 24 February)

Event Time Altitude Azimuth Distance (km) Brightness Sun altitude
Rises 04:08:05 0° 22° (NNE) 2,532 10.4 -23.3°
Reaches altitude 10° 04:10:19 10° 34° (NNE) 1,658 9.6 -22.9°
Maximum altitude 04:13:28 29° 96° (E) 907 8.6 -22.4°
Drops below altitude 10° 04:16:39 10° 158° (SSE) 1,669 9.6 -21.9°
Sets 04:18:55 0° 170° (S) 2,554 10.4 -21.5°
